Search for airport 
image banner adimage banner ad
image banner ad

DATM - Bordj Mokhtar

Located in Bordj Mokhtar, Algeria

ICAO - DATM, IATA - BMW

Data provided by Airmate  

General information

Coordinates: N21°22'30" E0°55'26"
Elevation is 1302 feet MSL.
 
View others Airports in Adrar Province

Operational data

Open for public use
Current time UTC:
Current local time:
Weather
TAF: TAF DATM 311700Z 3118/0103 06008KT CAVOK
View NOTAMs / SUP AIP / TFR affecting this airport [VIEW]
Communications frequencies: [VIEW]

Runways:

RWY identifierQFULength (ft)Width (ft)SurfaceLDA (ft)
0878°7372148UNK
26258°9843148

Airport contact information

Address: Bordj Mokhtar Algeria

Satellite view of DATM